QPF
0.02 0.02 0.03 0.03 0.03 0.03 0.03 0.03 0.02 0.02 0.01 0.01 0.03 0.05 0.07 0.07 0.08 0.09 0.10 0.10 0.09 0.10 0.10 0.10 0.09 0.07 0.06 0.06 0.10 0.13 0.11 0.08 0.06 0.04 0.02 0.01 0.01 0.01 0.01 0.01 0.01 0.00 0.00
0.02 0.03 0.03 0.02 0.03 0.03 0.03 0.03 0.03 0.02 0.02 0.02 0.03 0.06 0.08 0.10 0.11 0.12 0.12 0.12 0.11 0.11 0.12 0.12 0.11 0.09 0.08 0.07 0.07 0.10 0.14 0.12 0.10 0.08 0.06 0.04 0.02 0.01 0.01 0.01 0.01 0.01 0.01
0.03 0.03 0.03 0.02 0.02 0.03 0.03 0.03 0.03 0.02 0.02 0.02 0.03 0.05 0.06 0.08 0.12 0.14 0.14 0.13 0.13 0.14 0.14 0.13 0.12 0.10 0.07 0.06 0.08 0.09 0.09 0.14 0.15 0.11 0.09 0.07 0.05 0.03 0.01 0.01 0.01 0.00 0.00
0.03 0.04 0.04 0.03 0.03 0.03 0.02 0.02 0.02 0.02 0.02 0.02 0.03 0.03 0.03 0.05 0.08 0.12 0.15 0.15 0.14 0.14 0.14 0.15 0.12 0.11 0.09 0.05 0.05 0.08 0.09 0.10 0.12 0.13 0.11 0.09 0.06 0.03 0.02 0.01 0.01 0.01 0.01
0.04 0.05 0.05 0.04 0.04 0.03 0.03 0.02 0.01 0.02 0.03 0.02 0.02 0.02 0.02 0.04 0.05 0.08 0.10 0.12 0.13 0.13 0.14 0.15 0.14 0.12 0.11 0.09 0.05 0.04 0.05 0.07 0.07 0.07 0.08 0.08 0.06 0.03 0.01 0.01 0.01 0.01 0.01
0.04 0.04 0.04 0.05 0.04 0.03 0.03 0.02 0.01 0.02 0.02 0.02 0.03 0.03 0.02 0.03 0.03 0.04 0.06 0.08 0.09 0.09 0.09 0.11 0.12 0.12 0.11 0.11 0.08 0.04 0.04 0.04 0.04 0.05 0.05 0.06 0.06 0.04 0.02 0.01 0.01 0.01 0.01
0.04 0.03 0.04 0.05 0.04 0.03 0.03 0.02 0.01 0.02 0.01 0.02 0.02 0.03 0.04 0.03 0.03 0.02 0.03 0.04 0.05 0.06 0.07 0.08 0.10 0.11 0.12 0.12 0.11 0.06 0.04 0.04 0.04 0.04 0.04 0.04 0.04 0.04 0.03 0.02 0.01 0.01 0.01
0.03 0.03 0.04 0.05 0.04 0.03 0.02 0.01 0.01 0.01 0.01 0.01 0.02 0.03 0.04 0.04 0.04 0.03 0.03 0.03 0.03 0.03 0.05 0.06 0.08 0.10 0.12 0.13 0.14 0.10 0.05 0.03 0.03 0.04 0.05 0.05 0.04 0.03 0.03 0.03 0.02 0.02 0.01
0.02 0.03 0.04 0.04 0.03 0.02 0.01 0.00 0.00 0.01 0.01 0.01 0.01 0.02 0.03 0.04 0.03 0.02 0.02 0.03 0.02 0.03 0.04 0.05 0.05 0.07 0.08 0.10 0.13 0.13 0.10 0.06 0.05 0.05 0.06 0.06 0.05 0.04 0.04 0.04 0.04 0.03 0.02
0.02 0.03 0.03 0.02 0.01 0.01 0.01 0.00 0.00 0.01 0.01 0.01 0.01 0.01 0.01 0.02 0.02 0.02 0.02 0.02 0.03 0.03 0.03 0.03 0.04 0.04 0.05 0.06 0.08 0.10 0.10 0.07 0.05 0.05 0.06 0.06 0.07 0.05 0.04 0.05 0.05 0.04 0.04
0.02 0.02 0.02 0.01 0.01 0.01 0.00 0.00 0.00 0.00 0.01 0.01 0.01 0.00 0.00 0.01 0.01 0.01 0.01 0.01 0.01 0.02 0.03 0.04 0.04 0.04 0.04 0.04 0.05 0.06 0.06 0.06 0.04 0.04 0.04 0.05 0.07 0.08 0.06 0.05 0.04 0.04 0.04
0.01 0.02 0.02 0.01 0.01 0.00 0.00 0.00 0.00 0.01 0.01 0.00 0.00 0.00 0.00 0.01 0.00 0.00 0.01 0.01 0.01 0.01 0.01 0.02 0.03 0.04 0.05 0.04 0.04 0.05 0.05 0.04 0.04 0.03 0.02 0.03 0.04 0.05 0.06 0.06 0.05 0.03 0.03
0.01 0.01 0.02 0.02 0.01 0.01 0.00 0.00 0.00 0.00 0.00 0.00 0.00 0.00 0.00 0.00 0.00 0.01 0.01 0.01 0.01 0.01 0.01 0.01 0.01 0.02 0.03 0.04 0.04 0.03 0.04 0.04 0.03 0.03 0.02 0.02 0.02 0.02 0.03 0.03 0.04 0.04 0.03
0.01 0.01 0.01 0.01 0.01 0.01 0.00 0.00 0.00 0.00 0.00 0.00 0.00 0.00 0.00 0.00 0.00 0.00 0.01 0.01 0.01 0.01 0.01 0.01 0.01 0.01 0.02 0.02 0.03 0.03 0.03 0.03 0.02 0.02 0.01 0.01 0.01 0.01 0.01 0.01 0.02 0.03 0.03
0.00 0.00 0.00 0.00 0.00 0.00 0.00 0.00 0.00 0.00 0.00 0.00 0.00 0.00 0.00 0.00 0.00 0.00 0.00 0.00 0.01 0.01 0.01 0.01 0.01 0.01 0.01 0.02 0.02 0.02 0.02 0.03 0.02 0.02 0.02 0.01 0.01 0.01 0.01 0.01 0.01 0.01 0.02
0.00 0.00 0.00 0.00 0.00 0.00 0.00 0.00 0.00 0.00 0.00 0.00 0.00 0.00 0.00 0.00 0.00 0.00 0.00 0.00 0.01 0.01 0.01 0.01 0.01 0.01 0.01 0.02 0.02 0.01 0.02 0.03 0.03 0.01 0.01 0.01 0.01 0.01 0.01 0.01 0.01 0.01 0.02
0.00 0.00 0.00 0.00 0.00 0.00 0.00 0.00 0.00 0.00 0.00 0.01 0.01 0.00 0.00 0.00 0.01 0.00 0.00 0.00 0.00 0.01 0.00 0.00 0.01 0.01 0.02 0.02 0.02 0.02 0.02 0.03 0.04 0.03 0.01 0.01 0.01 0.01 0.01 0.01 0.02 0.01 0.02
0.00 0.00 0.00 0.00 0.00 0.00 0.00 0.00 0.00 0.00 0.00 0.01 0.01 0.00 0.01 0.01 0.01 0.01 0.00 0.00 0.00 0.00 0.00 0.00 0.00 0.01 0.01 0.02 0.02 0.02 0.02 0.02 0.03 0.04 0.03 0.01 0.01 0.01 0.01 0.01 0.02 0.01 0.01
0.00 0.00 0.00 0.00 0.00 0.00 0.00 0.00 0.00 0.00 0.00 0.01 0.01 0.01 0.02 0.02 0.02 0.03 0.01 0.01 0.00 0.00 0.00 0.00 0.01 0.01 0.01 0.02 0.02 0.02 0.02 0.02 0.03 0.04 0.05 0.03 0.01 0.01 0.02 0.02 0.02 0.02 0.02
0.00 0.00 0.00 0.00 0.00 0.00 0.00 0.00 0.00 0.00 0.00 0.00 0.01 0.01 0.01 0.02 0.01 0.04 0.02 0.01 0.01 0.00 0.00 0.01 0.01 0.01 0.01 0.02 0.02 0.02 0.02 0.02 0.03 0.03 0.04 0.05 0.03 0.02 0.02 0.02 0.02 0.02 0.02
0.00 0.00 0.00 0.00 0.00 0.00 0.01 0.00 0.00 0.00 0.00 0.00 0.00 0.00 0.01 0.02 0.01 0.03 0.02 0.01 0.01 0.00 0.00 0.01 0.01 0.01 0.01 0.01 0.01 0.01 0.01 0.02 0.02 0.02 0.03 0.04 0.04 0.04 0.03 0.03 0.02 0.02 0.01
0.00 0.00 0.00 0.00 0.00 0.00 0.01 0.00 0.00 0.00 0.00 0.00 0.00 0.00 0.00 0.01 0.01 0.01 0.02 0.02 0.01 0.01 0.01 0.01 0.01 0.01 0.01 0.01 0.01 0.01 0.01 0.02 0.02 0.02 0.02 0.02 0.03 0.04 0.04 0.03 0.03 0.03 0.02
0.00 0.00 0.00 0.00 0.00 0.00 0.01 0.00 0.00 0.00 0.00 0.00 0.00 0.00 0.00 0.00 0.01 0.01 0.01 0.01 0.01 0.01 0.01 0.01 0.01 0.01 0.01 0.01 0.01 0.01 0.01 0.02 0.02 0.02 0.02 0.02 0.03 0.03 0.04 0.04 0.03 0.03 0.02
0.00 0.00 0.00 0.00 0.00 0.00 0.00 0.01 0.00 0.00 0.00 0.00 0.00 0.00 0.00 0.00 0.00 0.01 0.01 0.01 0.01 0.01 0.01 0.01 0.01 0.01 0.01 0.01 0.01 0.01 0.02 0.02 0.02 0.02 0.02 0.02 0.03 0.04 0.04 0.04 0.04 0.03 0.02
0.00 0.00 0.00 0.00 0.00 0.00 0.00 0.00 0.00 0.00 0.00 0.00 0.00 0.00 0.00 0.00 0.00 0.00 0.00 0.00 0.00 0.01 0.01 0.01 0.01 0.01 0.01 0.01 0.01 0.01 0.02 0.02 0.02 0.02 0.02 0.03 0.03 0.04 0.05 0.05 0.04 0.04 0.03
0.00 0.00 0.00 0.00 0.00 0.00 0.00 0.00 0.00 0.00 0.00 0.00 0.00 0.00 0.00 0.00 0.00 0.00 0.00 0.00 0.00 0.00 0.00 0.00 0.00 0.00 0.01 0.01 0.01 0.01 0.02 0.02 0.02 0.02 0.03 0.03 0.04 0.05 0.05 0.05 0.05 0.04 0.04
MSLP
1008.04 1008.07 1008.14 1008.25 1008.39 1008.57 1008.80 1009.09 1009.44 1009.85 1010.28 1010.72 1011.14 1011.52 1011.84 1012.10 1012.31 1012.49 1012.65 1012.83 1013.03 1013.26 1013.53 1013.83 1014.16 1014.50 1014.85 1015.20 1015.55 1015.87 1016.17 1016.42 1016.62 1016.76 1016.82 1016.80 1016.71 1016.56 1016.38 1016.19 1016.02 1015.89 1015.83
1008.02 1008.06 1008.11 1008.18 1008.25 1008.36 1008.51 1008.74 1009.04 1009.41 1009.83 1010.28 1010.71 1011.11 1011.43 1011.69 1011.88 1012.03 1012.16 1012.30 1012.47 1012.68 1012.94 1013.24 1013.57 1013.93 1014.30 1014.66 1015.03 1015.38 1015.71 1016.00 1016.24 1016.43 1016.54 1016.57 1016.52 1016.39 1016.22 1016.01 1015.82 1015.66 1015.57
1008.17 1008.24 1008.30 1008.33 1008.34 1008.36 1008.43 1008.55 1008.77 1009.08 1009.46 1009.87 1010.29 1010.66 1010.98 1011.21 1011.38 1011.49 1011.59 1011.70 1011.84 1012.03 1012.28 1012.59 1012.93 1013.29 1013.67 1014.05 1014.42 1014.79 1015.14 1015.46 1015.75 1015.98 1016.15 1016.23 1016.23 1016.14 1015.99 1015.80 1015.60 1015.42 1015.30
1008.47 1008.60 1008.68 1008.69 1008.65 1008.59 1008.55 1008.57 1008.68 1008.90 1009.19 1009.54 1009.89 1010.22 1010.49 1010.68 1010.80 1010.88 1010.94 1011.02 1011.14 1011.33 1011.57 1011.88 1012.23 1012.60 1012.99 1013.37 1013.75 1014.12 1014.47 1014.81 1015.13 1015.40 1015.62 1015.76 1015.82 1015.79 1015.68 1015.52 1015.33 1015.15 1015.01
1008.85 1009.06 1009.17 1009.19 1009.10 1008.97 1008.83 1008.75 1008.75 1008.84 1009.03 1009.28 1009.55 1009.80 1009.99 1010.12 1010.19 1010.22 1010.25 1010.30 1010.40 1010.58 1010.83 1011.14 1011.50 1011.88 1012.27 1012.65 1013.02 1013.38 1013.73 1014.07 1014.40 1014.70 1014.96 1015.16 1015.28 1015.32 1015.27 1015.15 1015.00 1014.83 1014.69
1009.24 1009.52 1009.69 1009.71 1009.60 1009.41 1009.20 1009.01 1008.90 1008.88 1008.95 1009.09 1009.25 1009.41 1009.52 1009.57 1009.58 1009.55 1009.54 1009.56 1009.65 1009.82 1010.07 1010.39 1010.75 1011.13 1011.52 1011.90 1012.25 1012.60 1012.93 1013.27 1013.60 1013.91 1014.21 1014.45 1014.63 1014.74 1014.76 1014.71 1014.61 1014.48 1014.35
1009.55 1009.90 1010.11 1010.15 1010.03 1009.81 1009.53 1009.27 1009.06 1008.94 1008.91 1008.94 1009.00 1009.05 1009.08 1009.05 1008.99 1008.92 1008.87 1008.86 1008.93 1009.09 1009.34 1009.65 1010.02 1010.40 1010.78 1011.14 1011.47 1011.80 1012.11 1012.43 1012.75 1013.08 1013.39 1013.67 1013.91 1014.09 1014.19 1014.21 1014.18 1014.10 1014.01
1009.74 1010.13 1010.37 1010.42 1010.30 1010.06 1009.75 1009.43 1009.16 1008.97 1008.85 1008.79 1008.76 1008.74 1008.69 1008.60 1008.49 1008.37 1008.28 1008.25 1008.31 1008.45 1008.68 1008.99 1009.34 1009.70 1010.06 1010.40 1010.72 1011.01 1011.31 1011.60 1011.91 1012.24 1012.57 1012.89 1013.17 1013.41 1013.59 1013.69 1013.74 1013.74 1013.71
1009.82 1010.21 1010.44 1010.50 1010.38 1010.13 1009.81 1009.47 1009.17 1008.93 1008.75 1008.64 1008.55 1008.47 1008.37 1008.24 1008.09 1007.95 1007.84 1007.79 1007.82 1007.95 1008.16 1008.43 1008.76 1009.09 1009.42 1009.73 1010.02 1010.29 1010.56 1010.84 1011.14 1011.47 1011.81 1012.15 1012.48 1012.78 1013.02 1013.21 1013.34 1013.43 1013.48
1009.82 1010.17 1010.37 1010.41 1010.28 1010.03 1009.71 1009.38 1009.07 1008.81 1008.62 1008.48 1008.36 1008.25 1008.13 1007.98 1007.83 1007.68 1007.56 1007.51 1007.52 1007.62 1007.80 1008.04 1008.32 1008.62 1008.91 1009.18 1009.44 1009.69 1009.95 1010.22 1010.51 1010.84 1011.19 1011.55 1011.91 1012.25 1012.55 1012.81 1013.03 1013.19 1013.32
1009.81 1010.09 1010.23 1010.23 1010.09 1009.84 1009.53 1009.21 1008.91 1008.67 1008.47 1008.33 1008.21 1008.10 1007.98 1007.85 1007.71 1007.58 1007.47 1007.42 1007.43 1007.51 1007.65 1007.85 1008.08 1008.32 1008.57 1008.81 1009.04 1009.27 1009.52 1009.78 1010.08 1010.41 1010.76 1011.14 1011.51 1011.88 1012.23 1012.54 1012.81 1013.04 1013.24
1009.86 1010.04 1010.11 1010.06 1009.90 1009.65 1009.35 1009.04 1008.77 1008.54 1008.35 1008.22 1008.11 1008.01 1007.92 1007.82 1007.71 1007.62 1007.55 1007.52 1007.53 1007.60 1007.71 1007.87 1008.05 1008.24 1008.44 1008.64 1008.84 1009.06 1009.31 1009.57 1009.88 1010.21 1010.57 1010.95 1011.32 1011.70 1012.05 1012.38 1012.68 1012.96 1013.20
1009.99 1010.08 1010.08 1009.98 1009.79 1009.54 1009.25 1008.95 1008.69 1008.47 1008.29 1008.16 1008.06 1007.98 1007.92 1007.86 1007.81 1007.77 1007.76 1007.76 1007.80 1007.87 1007.97 1008.09 1008.22 1008.37 1008.52 1008.69 1008.87 1009.08 1009.32 1009.59 1009.90 1010.24 1010.59 1010.96 1011.32 1011.67 1012.01 1012.32 1012.62 1012.90 1013.16
1010.20 1010.21 1010.15 1010.01 1009.81 1009.55 1009.26 1008.98 1008.71 1008.49 1008.30 1008.16 1008.06 1008.00 1007.96 1007.95 1007.95 1007.98 1008.03 1008.10 1008.18 1008.28 1008.38 1008.48 1008.58 1008.68 1008.80 1008.93 1009.09 1009.29 1009.52 1009.80 1010.11 1010.44 1010.78 1011.12 1011.45 1011.76 1012.04 1012.31 1012.57 1012.82 1013.06
1010.43 1010.39 1010.30 1010.15 1009.94 1009.68 1009.40 1009.11 1008.84 1008.59 1008.38 1008.21 1008.09 1008.02 1008.00 1008.03 1008.09 1008.19 1008.32 1008.46 1008.60 1008.74 1008.86 1008.96 1009.05 1009.13 1009.21 1009.31 1009.45 1009.63 1009.85 1010.12 1010.42 1010.74 1011.05 1011.36 1011.63 1011.88 1012.10 1012.30 1012.48 1012.67 1012.87
1010.61 1010.57 1010.47 1010.32 1010.13 1009.89 1009.61 1009.32 1009.03 1008.75 1008.50 1008.28 1008.13 1008.03 1008.01 1008.06 1008.17 1008.34 1008.55 1008.77 1008.99 1009.18 1009.35 1009.47 1009.55 1009.62 1009.68 1009.75 1009.86 1010.01 1010.21 1010.46 1010.74 1011.03 1011.31 1011.56 1011.79 1011.96 1012.11 1012.23 1012.34 1012.45 1012.58
1010.70 1010.67 1010.60 1010.48 1010.31 1010.10 1009.84 1009.55 1009.23 1008.92 1008.61 1008.35 1008.14 1008.01 1007.97 1008.02 1008.17 1008.39 1008.67 1008.97 1009.27 1009.53 1009.75 1009.91 1010.01 1010.07 1010.11 1010.16 1010.23 1010.35 1010.52 1010.73 1010.97 1011.23 1011.47 1011.67 1011.84 1011.95 1012.03 1012.07 1012.11 1012.15 1012.21
1010.66 1010.66 1010.63 1010.55 1010.43 1010.25 1010.02 1009.73 1009.40 1009.05 1008.70 1008.37 1008.11 1007.93 1007.86 1007.90 1008.07 1008.33 1008.67 1009.04 1009.40 1009.74 1010.01 1010.20 1010.33 1010.40 1010.43 1010.45 1010.49 1010.57 1010.70 1010.87 1011.06 1011.27 1011.47 1011.63 1011.75 1011.82 1011.84 1011.83 1011.82 1011.80 1011.82
1010.49 1010.53 1010.54 1010.51 1010.44 1010.31 1010.11 1009.83 1009.50 1009.12 1008.72 1008.35 1008.03 1007.80 1007.69 1007.72 1007.88 1008.17 1008.54 1008.96 1009.38 1009.77 1010.09 1010.33 1010.48 1010.56 1010.58 1010.59 1010.60 1010.64 1010.72 1010.84 1010.99 1011.16 1011.31 1011.44 1011.53 1011.58 1011.57 1011.54 1011.50 1011.46 1011.45
1010.25 1010.31 1010.35 1010.36 1010.34 1010.25 1010.08 1009.83 1009.50 1009.11 1008.69 1008.28 1007.91 1007.64 1007.49 1007.49 1007.64 1007.93 1008.31 1008.75 1009.21 1009.64 1010.00 1010.27 1010.45 1010.54 1010.57 1010.56 1010.55 1010.56 1010.60 1010.68 1010.79 1010.92 1011.04 1011.15 1011.23 1011.27 1011.27 1011.25 1011.21 1011.17 1011.15
1009.98 1010.04 1010.10 1010.14 1010.15 1010.10 1009.96 1009.74 1009.42 1009.04 1008.61 1008.17 1007.78 1007.47 1007.29 1007.26 1007.38 1007.65 1008.03 1008.47 1008.94 1009.39 1009.77 1010.07 1010.27 1010.37 1010.41 1010.41 1010.38 1010.37 1010.38 1010.43 1010.51 1010.62 1010.73 1010.83 1010.91 1010.97 1010.99 1011.00 1010.99 1010.97 1010.97
1009.72 1009.77 1009.83 1009.89 1009.91 1009.88 1009.77 1009.57 1009.28 1008.91 1008.48 1008.04 1007.64 1007.31 1007.11 1007.05 1007.14 1007.38 1007.73 1008.15 1008.61 1009.06 1009.45 1009.76 1009.98 1010.11 1010.17 1010.17 1010.15 1010.14 1010.14 1010.17 1010.24 1010.33 1010.43 1010.54 1010.64 1010.72 1010.78 1010.82 1010.85 1010.87 1010.88
1009.49 1009.52 1009.58 1009.63 1009.66 1009.64 1009.54 1009.36 1009.09 1008.73 1008.33 1007.90 1007.51 1007.18 1006.96 1006.88 1006.95 1007.15 1007.46 1007.86 1008.29 1008.72 1009.10 1009.42 1009.65 1009.81 1009.89 1009.92 1009.92 1009.92 1009.93 1009.96 1010.03 1010.11 1010.22 1010.33 1010.45 1010.55 1010.64 1010.72 1010.78 1010.83 1010.88
1009.27 1009.29 1009.34 1009.38 1009.40 1009.38 1009.29 1009.12 1008.86 1008.53 1008.15 1007.76 1007.39 1007.08 1006.86 1006.77 1006.82 1006.99 1007.27 1007.62 1008.02 1008.42 1008.79 1009.10 1009.35 1009.52 1009.64 1009.70 1009.74 1009.76 1009.79 1009.84 1009.91 1010.00 1010.11 1010.22 1010.35 1010.47 1010.58 1010.68 1010.77 1010.84 1010.89
1009.03 1009.07 1009.11 1009.15 1009.16 1009.12 1009.03 1008.86 1008.62 1008.31 1007.97 1007.61 1007.28 1007.00 1006.81 1006.73 1006.77 1006.92 1007.16 1007.48 1007.84 1008.20 1008.55 1008.85 1009.10 1009.30 1009.44 1009.54 1009.61 1009.67 1009.73 1009.79 1009.87 1009.97 1010.07 1010.19 1010.31 1010.43 1010.54 1010.65 1010.74 1010.82 1010.87
1008.75 1008.82 1008.87 1008.91 1008.91 1008.86 1008.76 1008.59 1008.36 1008.08 1007.78 1007.47 1007.19 1006.96 1006.82 1006.76 1006.81 1006.95 1007.17 1007.45 1007.77 1008.10 1008.41 1008.70 1008.95 1009.15 1009.31 1009.43 1009.54 1009.63 1009.71 1009.79 1009.88 1009.98 1010.08 1010.18 1010.29 1010.39 1010.49 1010.58 1010.66 1010.72 1010.76
Thickness
5595 5594 5592 5591 5590 5589 5588 5589 5589 5590 5591 5592 5593 5594 5596 5598 5601 5604 5607 5609 5611 5613 5614 5615 5615 5615 5614 5614 5613 5612 5612 5611 5612 5610 5609 5610 5611 5611 5610 5609 5608 5607 5606
5585 5584 5583 5582 5581 5581 5580 5581 5582 5582 5583 5584 5586 5587 5589 5591 5593 5596 5598 5601 5603 5604 5605 5606 5606 5607 5605 5604 5604 5603 5601 5601 5602 5599 5597 5596 5597 5599 5601 5600 5599 5598 5598
5578 5575 5574 5573 5572 5572 5572 5574 5574 5575 5576 5578 5579 5580 5581 5582 5584 5587 5590 5592 5594 5594 5596 5597 5598 5598 5597 5596 5595 5594 5593 5590 5590 5591 5588 5585 5584 5585 5589 5591 5590 5589 5588
5571 5568 5566 5565 5564 5563 5564 5566 5567 5568 5570 5571 5572 5573 5574 5574 5576 5578 5580 5583 5584 5585 5587 5587 5588 5589 5588 5587 5587 5586 5585 5582 5579 5579 5579 5579 5578 5575 5575 5578 5579 5580 5578
5565 5561 5559 5557 5556 5556 5557 5558 5560 5561 5563 5564 5565 5565 5566 5567 5569 5570 5572 5573 5574 5576 5577 5578 5578 5579 5579 5578 5577 5577 5575 5574 5571 5570 5569 5568 5567 5567 5565 5564 5565 5567 5567
5558 5554 5551 5549 5548 5548 5549 5551 5552 5554 5555 5557 5558 5558 5559 5559 5560 5561 5563 5564 5565 5567 5568 5569 5569 5569 5569 5568 5568 5567 5566 5565 5563 5562 5561 5558 5556 5555 5554 5553 5553 5553 5556
5550 5546 5543 5540 5539 5540 5541 5543 5545 5546 5547 5548 5549 5550 5550 5551 5551 5552 5553 5554 5555 5556 5557 5558 5559 5558 5558 5558 5558 5557 5557 5556 5554 5553 5552 5551 5548 5546 5545 5543 5541 5541 5544
5542 5539 5536 5533 5532 5533 5533 5534 5535 5537 5538 5539 5540 5541 5543 5543 5543 5543 5544 5544 5545 5546 5546 5547 5548 5548 5548 5548 5547 5546 5546 5545 5544 5543 5542 5540 5538 5537 5535 5533 5530 5529 5530
5534 5530 5528 5526 5525 5524 5525 5525 5526 5527 5529 5530 5531 5532 5533 5534 5534 5535 5535 5534 5534 5535 5535 5536 5537 5537 5538 5537 5536 5535 5534 5534 5533 5532 5531 5529 5528 5526 5525 5523 5521 5518 5517
5525 5522 5519 5518 5517 5517 5516 5517 5518 5518 5519 5521 5522 5524 5524 5524 5525 5525 5525 5525 5525 5525 5525 5525 5526 5526 5526 5526 5526 5524 5523 5522 5522 5521 5519 5517 5516 5515 5514 5512 5511 5509 5507
5516 5513 5511 5510 5509 5508 5507 5508 5508 5509 5510 5511 5512 5513 5514 5515 5516 5515 5515 5515 5515 5515 5515 5515 5515 5515 5515 5514 5514 5513 5512 5511 5510 5509 5508 5506 5505 5503 5502 5501 5500 5498 5496
5507 5504 5503 5501 5500 5499 5499 5499 5499 5500 5501 5502 5502 5502 5503 5504 5505 5505 5505 5505 5504 5504 5505 5504 5504 5504 5503 5502 5501 5501 5500 5499 5497 5496 5496 5495 5493 5492 5490 5489 5488 5486 5485
5499 5496 5495 5493 5492 5492 5492 5491 5491 5492 5493 5493 5493 5493 5493 5494 5494 5495 5495 5495 5494 5494 5494 5493 5493 5492 5491 5490 5489 5488 5487 5486 5485 5484 5483 5482 5481 5480 5478 5477 5475 5473 5473
5491 5489 5487 5486 5485 5485 5485 5484 5484 5484 5484 5485 5484 5483 5483 5484 5484 5484 5484 5484 5483 5483 5482 5482 5481 5480 5479 5477 5476 5476 5474 5474 5473 5472 5471 5470 5469 5468 5466 5465 5463 5461 5459
5484 5483 5480 5478 5478 5478 5477 5477 5476 5476 5476 5475 5475 5474 5474 5473 5473 5473 5472 5472 5472 5472 5471 5470 5469 5468 5467 5466 5465 5464 5463 5461 5461 5460 5459 5458 5457 5456 5454 5453 5451 5449 5446
5479 5477 5476 5474 5472 5471 5470 5469 5468 5467 5467 5465 5465 5464 5464 5463 5462 5462 5462 5461 5461 5460 5460 5459 5458 5457 5456 5455 5454 5453 5451 5450 5449 5448 5447 5446 5445 5444 5443 5441 5439 5437 5435
5473 5471 5469 5468 5466 5464 5463 5461 5460 5459 5457 5456 5455 5455 5454 5453 5452 5452 5451 5450 5449 5449 5448 5447 5447 5446 5444 5444 5443 5442 5440 5439 5437 5436 5434 5434 5433 5431 5430 5428 5426 5424 5423
5466 5464 5462 5461 5459 5457 5455 5453 5451 5449 5448 5447 5446 5445 5444 5442 5441 5441 5440 5439 5438 5438 5437 5436 5436 5434 5433 5432 5431 5430 5428 5427 5426 5424 5423 5422 5421 5419 5418 5416 5414 5413 5412
5458 5456 5454 5453 5451 5449 5447 5445 5442 5440 5439 5438 5437 5435 5434 5432 5431 5430 5429 5429 5428 5427 5426 5426 5424 5423 5422 5421 5420 5419 5417 5415 5414 5413 5411 5410 5409 5409 5407 5405 5403 5402 5401
5450 5448 5446 5444 5442 5441 5438 5435 5433 5431 5430 5429 5428 5426 5425 5423 5422 5420 5419 5418 5418 5417 5416 5414 5413 5412 5410 5409 5408 5407 5405 5405 5404 5402 5400 5399 5398 5397 5395 5393 5391 5390 5390
5441 5439 5437 5435 5434 5432 5430 5427 5425 5423 5422 5420 5419 5417 5416 5414 5413 5411 5410 5408 5407 5406 5404 5403 5403 5401 5400 5398 5397 5396 5394 5392 5391 5389 5389 5387 5386 5385 5384 5382 5380 5380 5379
5431 5430 5427 5426 5425 5423 5421 5419 5416 5415 5413 5411 5409 5408 5406 5405 5404 5401 5399 5398 5397 5395 5393 5392 5391 5389 5389 5387 5386 5384 5383 5381 5379 5377 5376 5375 5375 5374 5372 5371 5370 5369 5367
5421 5420 5418 5416 5415 5414 5413 5410 5409 5406 5404 5402 5400 5398 5397 5395 5393 5391 5389 5387 5386 5384 5383 5382 5380 5379 5378 5376 5375 5374 5372 5369 5367 5365 5364 5364 5363 5362 5360 5358 5357 5356 5354
5412 5411 5409 5407 5406 5405 5404 5402 5400 5398 5396 5393 5391 5389 5387 5385 5383 5382 5380 5378 5376 5375 5374 5372 5370 5368 5367 5366 5364 5362 5360 5358 5355 5353 5352 5351 5350 5348 5346 5345 5344 5342 5341
5403 5402 5400 5398 5397 5397 5395 5393 5391 5389 5387 5385 5383 5380 5379 5376 5374 5373 5371 5369 5368 5366 5364 5362 5359 5357 5356 5355 5354 5351 5349 5346 5344 5342 5339 5337 5335 5334 5333 5332 5330 5330 5329
5395 5393 5391 5390 5389 5388 5387 5385 5383 5381 5378 5376 5374 5372 5369 5367 5365 5363 5361 5361 5359 5358 5356 5354 5351 5349 5347 5345 5343 5340 5338 5335 5333 5330 5327 5326 5324 5322 5321 5320 5319 5318 5318